• In Hungary
  • List of Countries
  • For 7 days
  • Water Temperature
  • Satellite Maps
  • Weather Map
  • News
  • Weather Widgets
  • user-avatar
    Login

    Hourly Weather Abomey

    Today, 22 September, Saturday

    Time Temperature Precipitation Wind Pressure Humidity
    00:00 +25°C° 0 mm 2 mps 739 mmHg 93%
    01:00 +25°C° 0 mm 2 mps 738 mmHg 93%
    02:00 +25°C° 0 mm 2 mps 738 mmHg 93%
    03:00 +24°C° 0 mm 2 mps 738 mmHg 93%
    04:00 +24°C° 0 mm 2 mps 738 mmHg 94%
    05:00 +24°C° 0 mm 2 mps 738 mmHg 94%
    06:00 +24°C° 0 mm 2 mps 739 mmHg 94%
    07:00 +26°C° 0 mm 2 mps 739 mmHg 88%
    08:00 +27°C° 0 mm 2 mps 739 mmHg 82%
    09:00 +29°C° 0 mm 3 mps 740 mmHg 76%
    10:00 +30°C° 0 mm 3 mps 740 mmHg 71%
    11:00 +31°C° 0 mm 3 mps 739 mmHg 65%
    12:00 +34°C° 0 mm 2 mps 739 mmHg 60%
    13:00 +34°C° 0.2 mm 2 mps 738 mmHg 60%
    14:00 +34°C° 0.2 mm 2 mps 737 mmHg 60%
    15:00 +34°C° 0.2 mm 2 mps 736 mmHg 60%
    16:00 +31°C° 1.6 mm 2 mps 737 mmHg 68%
    17:00 +29°C° 1.6 mm 2 mps 737 mmHg 77%
    18:00 +27°C° 1.6 mm 2 mps 737 mmHg 85%
    19:00 +27°C° 1.5 mm 2 mps 738 mmHg 88%
    20:00 +26°C° 1.5 mm 2 mps 739 mmHg 90%
    21:00 +26°C° 1.5 mm 2 mps 740 mmHg 92%
    22:00 +25°C° 0.7 mm 2 mps 739 mmHg 93%
    23:00 +25°C° 0.7 mm 2 mps 739 mmHg 94%

    Tomorrow, 23 September, Sunday

    Time Temperature Precipitation Wind Pressure Humidity
    00:00 +25°C° 0.7 mm 2 mps 739 mmHg 95%
    01:00 +25°C° 0 mm 2 mps 739 mmHg 95%
    02:00 +25°C° 0 mm 2 mps 738 mmHg 95%
    03:00 +24°C° 0 mm 2 mps 738 mmHg 96%
    04:00 +24°C° 0 mm 1 mps 738 mmHg 96%
    05:00 +24°C° 0 mm 1 mps 739 mmHg 96%
    06:00 +24°C° 0 mm 1 mps 739 mmHg 96%
    07:00 +26°C° 0 mm 1 mps 740 mmHg 91%
    08:00 +27°C° 0 mm 1 mps 740 mmHg 85%
    09:00 +29°C° 0 mm 1 mps 741 mmHg 80%
    10:00 +30°C° 0.5 mm 1 mps 740 mmHg 75%
    11:00 +31°C° 0.5 mm 1 mps 740 mmHg 70%
    12:00 +32°C° 0.5 mm 1 mps 739 mmHg 66%
    13:00 +31°C° 2.3 mm 1 mps 739 mmHg 70%
    14:00 +30°C° 2.3 mm 1 mps 738 mmHg 74%
    15:00 +30°C° 2.3 mm 1 mps 738 mmHg 77%
    16:00 +29°C° 1.2 mm 1 mps 738 mmHg 82%
    17:00 +27°C° 1.2 mm 1 mps 738 mmHg 86%
    18:00 +26°C° 1.2 mm 1 mps 738 mmHg 90%
    19:00 +26°C° 0 mm 1 mps 738 mmHg 91%
    20:00 +26°C° 0 mm 1 mps 739 mmHg 91%
    21:00 +25°C° 0 mm 1 mps 739 mmHg 92%
    22:00 +25°C° 0 mm 1 mps 739 mmHg 93%
    23:00 +25°C° 0 mm 1 mps 739 mmHg 94%

    Day after tomorrow, 24 September, Monday

    Time Temperature Precipitation Wind Pressure Humidity
    00:00 +25°C° 0 mm 1 mps 739 mmHg 95%
    01:00 +25°C° 0 mm 1 mps 739 mmHg 96%
    02:00 +22°C° 0 mm 0 mps 739 mmHg 96%
    03:00 +22°C° 0 mm 0 mps 739 mmHg 97%
    04:00 +22°C° 0 mm 0 mps 739 mmHg 97%
    05:00 +22°C° 0 mm 0 mps 740 mmHg 96%
    06:00 +22°C° 0 mm 0 mps 740 mmHg 96%
    07:00 +26°C° 0 mm 1 mps 740 mmHg 90%
    08:00 +27°C° 0 mm 1 mps 741 mmHg 84%
    09:00 +29°C° 0 mm 1 mps 741 mmHg 78%
    10:00 +30°C° 0 mm 2 mps 740 mmHg 74%
    11:00 +30°C° 0 mm 2 mps 740 mmHg 70%
    12:00 +31°C° 0 mm 2 mps 739 mmHg 66%
    13:00 +31°C° 0 mm 2 mps 739 mmHg 66%
    14:00 +31°C° 0 mm 2 mps 738 mmHg 66%
    15:00 +31°C° 0 mm 2 mps 737 mmHg 67%
    16:00 +30°C° 0 mm 2 mps 737 mmHg 72%
    17:00 +29°C° 0 mm 1 mps 738 mmHg 77%
    18:00 +27°C° 0 mm 1 mps 738 mmHg 82%
    19:00 +27°C° 0 mm 1 mps 738 mmHg 83%
    20:00 +27°C° 0 mm 1 mps 739 mmHg 85%
    21:00 +26°C° 0 mm 1 mps 740 mmHg 86%
    22:00 +26°C° 0 mm 1 mps 740 mmHg 87%
    23:00 +26°C° 0 mm 1 mps 740 mmHg 88%

    25 September, Tuesday

    Time Temperature Precipitation Wind Pressure Humidity
    00:00 +25°C° 0 mm 1 mps 739 mmHg 89%
    01:00 +25°C° 0 mm 1 mps 739 mmHg 90%
    02:00 +25°C° 0 mm 1 mps 739 mmHg 91%
    03:00 +25°C° 0 mm 1 mps 738 mmHg 91%
    04:00 +25°C° 0 mm 1 mps 738 mmHg 92%
    05:00 +24°C° 0 mm 2 mps 739 mmHg 93%
    06:00 +24°C° 0 mm 2 mps 739 mmHg 93%
    07:00 +26°C° 0 mm 2 mps 739 mmHg 90%
    08:00 +27°C° 0 mm 2 mps 739 mmHg 86%
    09:00 +28°C° 0 mm 2 mps 740 mmHg 82%
    10:00 +29°C° 0 mm 2 mps 739 mmHg 75%
    11:00 +31°C° 0 mm 2 mps 739 mmHg 69%
    12:00 +32°C° 0 mm 2 mps 738 mmHg 62%
    13:00 +32°C° 0 mm 2 mps 738 mmHg 61%
    14:00 +32°C° 0 mm 2 mps 737 mmHg 60%
    15:00 +34°C° 0 mm 2 mps 737 mmHg 60%
    16:00 +31°C° 0.4 mm 2 mps 737 mmHg 66%
    17:00 +30°C° 0.4 mm 2 mps 737 mmHg 72%
    18:00 +28°C° 0.4 mm 1 mps 737 mmHg 78%
    19:00 +27°C° 0.8 mm 1 mps 738 mmHg 82%
    20:00 +27°C° 0.8 mm 1 mps 739 mmHg 86%
    21:00 +26°C° 0.8 mm 1 mps 739 mmHg 89%
    22:00 +26°C° 0.3 mm 2 mps 739 mmHg 90%
    23:00 +25°C° 0.3 mm 2 mps 739 mmHg 91%

    26 September, Wednesday

    Time Temperature Precipitation Wind Pressure Humidity
    00:00 +25°C° 0.3 mm 2 mps 738 mmHg 92%
    01:00 +25°C° 0 mm 2 mps 738 mmHg 93%
    02:00 +25°C° 0 mm 1 mps 738 mmHg 94%
    03:00 +25°C° 0 mm 1 mps 737 mmHg 94%
    04:00 +25°C° 0 mm 1 mps 737 mmHg 95%
    05:00 +24°C° 0 mm 1 mps 738 mmHg 95%
    06:00 +24°C° 0 mm 1 mps 738 mmHg 95%
    07:00 +26°C° 0.3 mm 2 mps 738 mmHg 90%
    08:00 +27°C° 0.3 mm 2 mps 739 mmHg 85%
    09:00 +28°C° 0.3 mm 2 mps 739 mmHg 80%
    10:00 +29°C° 0.7 mm 2 mps 739 mmHg 75%
    11:00 +30°C° 0.7 mm 2 mps 738 mmHg 69%
    12:00 +32°C° 0.7 mm 2 mps 738 mmHg 63%
    13:00 +31°C° 1.4 mm 2 mps 737 mmHg 65%
    14:00 +31°C° 1.4 mm 2 mps 737 mmHg 67%
    15:00 +31°C° 1.4 mm 2 mps 736 mmHg 69%
    16:00 +29°C° 1 mm 2 mps 737 mmHg 74%
    17:00 +28°C° 1 mm 2 mps 737 mmHg 79%
    18:00 +27°C° 1 mm 1 mps 737 mmHg 84%
    19:00 +27°C° 0 mm 1 mps 738 mmHg 86%
    20:00 +26°C° 0 mm 2 mps 738 mmHg 87%
    21:00 +26°C° 0 mm 2 mps 739 mmHg 89%
    22:00 +25°C° 0 mm 2 mps 739 mmHg 90%
    23:00 +25°C° 0 mm 2 mps 739 mmHg 91%

    27 September, Thursday

    Time Temperature Precipitation Wind Pressure Humidity
    00:00 +25°C° 0 mm 2 mps 738 mmHg 92%
    01:00 +25°C° 0 mm 1 mps 738 mmHg 93%
    02:00 +25°C° 0 mm 1 mps 738 mmHg 94%
    03:00 +24°C° 0 mm 1 mps 738 mmHg 95%
    04:00 +24°C° 0 mm 1 mps 738 mmHg 95%
    05:00 +24°C° 0 mm 1 mps 738 mmHg 96%
    06:00 +24°C° 0 mm 1 mps 739 mmHg 96%
    07:00 +26°C° 0 mm 2 mps 739 mmHg 89%
    08:00 +27°C° 0 mm 2 mps 739 mmHg 83%
    09:00 +29°C° 0 mm 2 mps 740 mmHg 76%
    10:00 +30°C° 0 mm 2 mps 739 mmHg 71%
    11:00 +31°C° 0 mm 2 mps 739 mmHg 65%
    12:00 +32°C° 0 mm 2 mps 738 mmHg 59%
    13:00 +32°C° 0 mm 2 mps 738 mmHg 59%
    14:00 +34°C° 0 mm 2 mps 737 mmHg 58%
    15:00 +34°C° 0 mm 2 mps 737 mmHg 58%
    16:00 +31°C° 0 mm 2 mps 737 mmHg 64%
    17:00 +30°C° 0 mm 2 mps 737 mmHg 69%
    18:00 +29°C° 0 mm 1 mps 737 mmHg 75%
    19:00 +28°C° 0 mm 2 mps 738 mmHg 78%
    20:00 +27°C° 0 mm 2 mps 738 mmHg 81%
    21:00 +26°C° 0 mm 2 mps 738 mmHg 85%
    22:00 +26°C° 0.2 mm 2 mps 738 mmHg 87%
    23:00 +26°C° 0.2 mm 2 mps 738 mmHg 89%
    Show more